Regional Weather Roundup
Issued by NWS

Home | Current Version | Previous Version | Text Only | Print | Product List | Glossary On
Versions: 1 2 3 4 5 6 7 8 9 10 11 12 13 14 15 16 17 18 19 20 21 22 23 24 25 26 27 28 29 30 31 32 33 34 35 36 37 38 39 40 41 42 43 44 45 46 47 48 49 50
000
ASUS42 KFFC 140803
RWRGA
WEATHER ROUNDUP FOR GEORGIA
NATIONAL WEATHER SERVICE PEACHTREE CITY GA
300 AM EST SUN FEB 14 2016

NOTE: "FAIR" INDICATES FEW OR NO CLOUDS BELOW 12,000 FEET WITH NO
SIGNIFICANT WEATHER AND/OR OBSTRUCTIONS TO VISIBILITY.

* = USE WITH CAUTION. THE STATIONS MARKED WITH AN ASTERISK MAY NOT
REPORT WEATHER SUCH AS PRECIPITATION, FOG, OR THUNDER AND ARE NOT
QUALITY CONTROLLED BY NWS.

THE REMARK "TC" DENOTES TEMPERATURE READING IN DEGREES CELSIUS.

GAZ001>058-140900-
NORTH GEORGIA

CITY           SKY/WX    TMP DP  RH WIND       PRES   REMARKS
ATLANTA        CLOUDY    30   6  36 N7        30.34S WCI  23
ATHENS         PTCLDY    27  10  49 E6        30.35R WCI  20
CHAMBLEE       CLEAR     27   9  46 CALM      30.34S
PEACHTREE CITY CLOUDY    27  13  55 NW3       30.35F
ROME           CLOUDY    26   8  46 N3        30.36F
WEST ATLANTA   CLEAR     28  10  46 CALM      30.35S
GAINESVILLE    PTCLDY    28   6  39 NE5       30.35R WCI  23
CARTERSVILLE   CLOUDY    24  10  55 CALM      30.38S


CITY           SKY/WX    TMP DP  RH WIND       PRES   REMARKS
DALTON*        CLOUDY    27  10  50 N8        30.38F WCI  18
MARIETTA       CLEAR     28   6  38 N2        30.34R
BLAIRSVILLE*     N/A     22  -1  36 CALM      30.30S
$$

GAZ059>098-102>109-140900-
CENTRAL GEORGIA

CITY           SKY/WX    TMP DP  RH WIND       PRES   REMARKS
AUGUSTA-BUSH   CLEAR     29  11  47 E7        30.40R WCI  22
AUGUSTA-DANIEL CLEAR     31   8  38 E10       30.38R WCI  22
COLUMBUS       CLEAR     33   8  35 E5        30.34F WCI  29
MACON          CLEAR     28  19  69 W5        30.36R WCI  23
ROBINS AFB     CLEAR     29  13  51 NW6       30.36R WCI  23


CITY           SKY/WX    TMP DP  RH WIND       PRES   REMARKS
LAGRANGE*      CLEAR     34  14  45 CALM      30.34F
SYLVANIA*      PTCLDY    34  23  64 E9        30.37S WCI  27
MILLEDGEVILLE* CLEAR     32  12  43 CALM      30.36R
$$

GAZ099>101-110>166-140900-
SOUTH GEORGIA

CITY           SKY/WX    TMP DP  RH WIND       PRES   REMARKS
SAVANNAH       CLEAR     34  23  64 NE6       30.35S WCI  29
VALDOSTA       CLEAR     34  23  64 N5        30.32F WCI  30
ALMA           CLEAR     35  18  49 N5        30.33S WCI  31
ST SIMONS      CLEAR     39  35  86 N7        30.31F WCI  34
FT STEWART     CLEAR     33  24  69 CALM      30.31F
ALBANY         CLEAR     33  19  56 NE3       30.36F
HUNTER AFB     CLEAR     37  25  61 N6        30.31S WCI  33
MOODY AFB      CLEAR     34  20  58 N6        30.31F WCI  28
BRUNSWICK      CLEAR     34  34 100 CALM      30.33S


CITY           SKY/WX    TMP DP  RH WIND       PRES   REMARKS
BAINBRIDGE*    CLEAR     37  23  56 NE3       30.34F
MOULTRIE*      CLEAR     36  23  60 CALM      30.34F
VIDALIA*       PTCLDY    32  21  64 N5        30.34S WCI  27
WAYCROSS*      CLEAR     38  23  55 N3        30.33S
DOUGLAS*       CLEAR     37  18  44 N6        30.35S WCI  33
$$



USA.gov is the U.S. government's official web portal to all federal, state and local government web resources and services.